Flag for Qatar Weather past 2 weeks in Al-Jamiliyah, Qatar

Now
88 °F

Clear.


Feels Like: 102 °F
Forecast: 82 / 104 °F
Wind: 2 mph from East

Location: Al Udeid

Current Time: Sep 16, 2014 at 11:31:31 PM

Latest Report: Sep 16, 2014 at 10:58 PM


Visibility: N/A

Pressure: 29.62 "Hg

Humidity: 75%

Dew point: 79 °F

Location of Al-JamiliyahLocation

Historic Weather in Al-Jamiliyah — Graph

°F

Al-Jamiliyah temperature yesterday

Maximum temperature yesterday: 109 °F (at 1:58 PM)
Minimum temperature yesterday: 80 °F (at 3:58 AM)
Average temperature yesterday: 94 °F

Past Weeks' High & Low Weather Summary

 TemperatureHumidityPressure
High113 °F (Sep 5, 2:58 PM)86% (Sep 4, 5:58 AM)29.72 "Hg (Sep 4, 5:58 AM)
Low78 °F (Sep 14, 5:58 AM)8% (Sep 5, 2:58 PM)29.47 "Hg (Sep 5, 1:58 PM)
Average95 °F46%29.61 "Hg
* Reported Sep 1 9:58 PM — Sep 16 9:58 PM, Al-Jamiliyah, Weather by CustomWeather, © 2014

Note: Actual official high and low records may vary slightly from our data, if they occured in-between our weather recording intervals... More about our weather records

Advertising

Al-Jamiliyah weather history for previous 24 hours

 ConditionsComfort  
Time TempWeatherWind HumidityBarometerVisibility
9:58 PM
Sep 16
88 °FClear.5 mph73%29.64 "HgN/A
8:58 PM90 °FClear.6 mph70%29.64 "HgN/A
7:58 PM91 °FClear.7 mph66%29.64 "HgN/A
6:58 PM94 °FSunny.7 mph53%29.63 "HgN/A
5:58 PM97 °FSunny.10 mph40%29.61 "HgN/A
4:58 PM100 °FSunny.10 mph38%29.60 "HgN/A
3:58 PM103 °FSunny.7 mph29%29.59 "HgN/A
2:58 PM104 °FSunny.6 mph26%29.59 "HgN/A
1:58 PM106 °FSunny.9 mph23%29.59 "HgN/A
12:58 PM105 °FSunny.2 mph21%29.60 "HgN/A
11:58 AM103 °FSunny.3 mph21%29.64 "HgN/A
10:58 AM102 °FSunny.5 mph22%29.66 "HgN/A
9:58 AM99 °FSunny.1 mph26%29.67 "HgN/A
8:58 AM94 °FSunny.1 mph53%29.68 "HgN/A
7:58 AM88 °FSunny.No wind69%29.68 "HgN/A
6:58 AM84 °FSunny.2 mph80%29.66 "Hg5 mi
5:58 AM80 °FClear.6 mph86%29.64 "Hg6 mi
4:58 AM80 °FClear.5 mph85%29.62 "HgN/A
3:58 AM80 °FClear.7 mph81%29.60 "HgN/A
2:58 AM82 °FClear.3 mph78%29.59 "HgN/A
1:58 AM83 °FClear.6 mph76%29.59 "HgN/A
12:58 AM84 °FClear.6 mph71%29.60 "HgN/A
11:58 PM
Sep 15
85 °FClear.6 mph69%29.61 "HgN/A
Weather by CustomWeather, © 2014

See weather overviewHow to use our weather pages